EW4713 Weather Reports


Display with metric or nautical units.
time (UTC)temp
F
wind
direction
speed
MPH
gust
MPH
rain 1hr
in
rain 24hr
in
rain mn
in
humidity
%
barometer
mb
20260507205206 53 141 4.0 7.0 0.00 0.00 0.00 37 1009.3
20260507204702 53 190 2.0 9.0 0.00 0.00 0.00 35 1009.4
20260507204203 53 95 2.0 9.0 0.00 0.00 0.00 37 1009.2
20260507203702 53 173 1.0 7.0 0.00 0.00 0.00 36 1009.4
20260507203205 51 147 3.0 7.0 0.00 0.00 0.00 39 1009.5
20260507202703 51 139 2.0 8.0 0.00 0.00 0.00 39 1009.5
20260507202202 51 165 2.0 8.0 0.00 0.00 0.00 37 1009.6
20260507201703 55 169 1.0 6.0 0.00 0.00 0.00 35 1009.7
20260507201204 53 152 4.0 7.0 0.00 0.00 0.00 37 1009.5
20260507200702 51 180 3.0 7.0 0.00 0.00 0.00 37 1009.8
20260507200204 54 341 2.0 11.0 0.00 0.00 0.00 37 1009.7
20260507195702 52 69 3.0 11.0 0.00 0.00 0.00 38 1009.5
20260507195203 55 109 1.0 8.0 0.00 0.00 0.00 39 1009.8
20260507194701 54 90 3.0 8.0 0.00 0.00 0.00 38 1009.8
20260507194201 52 110 3.0 10.0 0.00 0.00 0.00 39 1010.0
20260507193201 50 71 5.0 11.0 0.00 0.00 0.00 41 1009.9
20260507192701 49 203 1.0 9.0 0.00 0.00 0.00 40 1009.8
20260507192201 51 125 6.0 9.0 0.00 0.00 0.00 38 1009.6
20260507191701 51 117 2.0 9.0 0.00 0.00 0.00 38 1009.8
20260507191201 52 164 4.0 9.0 0.00 0.00 0.00 37 1009.8
20260507190702 53 194 2.0 9.0 0.00 0.00 0.00 36 1009.8
20260507190203 52 171 3.0 10.0 0.00 0.00 0.00 36 1009.8
20260507185701 53 101 2.0 10.0 0.00 0.00 0.00 38 1009.9
20260507185200 54 159 2.0 8.0 0.00 0.00 0.00 36 1010.0
20260507184702 52 67 4.0 16.0 0.00 0.00 0.00 37 1009.9
20260507184202 49 134 6.0 16.0 0.00 0.00 0.00 40 1010.2
20260507183702 51 148 3.0 10.0 0.00 0.00 0.00 39 1010.0
20260507183204 52 148 3.0 10.0 0.00 0.00 0.00 41 1010.0
20260507182702 51 154 4.0 10.0 0.00 0.00 0.00 41 1010.0
20260507182204 49 127 3.0 9.0 0.00 0.00 0.00 41 1010.0
20260507181703 50 154 2.0 9.0 0.00 0.00 0.00 42 1010.0
20260507180702 49 109 1.0 7.0 0.00 0.00 0.00 43 1010.5
20260507180204 49 196 4.0 7.0 0.00 0.00 0.00 42 1010.5
20260507175702 49 151 1.0 7.0 0.00 0.00 0.00 43 1010.3
20260507175202 48 104 7.0 12.0 0.00 0.00 0.00 42 1010.2
20260507174204 50 151 4.0 6.0 0.00 0.00 0.00 40 1010.5
20260507173705 49 201 2.0 8.0 0.00 0.00 0.00 41 1010.4
20260507173230 49 172 0.0 9.0 0.00 0.00 0.00 42 1010.7
20260507172702 50 134 3.0 9.0 0.00 0.00 0.00 40 1010.7
20260507172201 50 164 2.0 6.0 0.00 0.00 0.00 42 1010.6
20260507171203 48 144 2.0 6.0 0.00 0.00 0.00 44 1010.8
20260507170705 49 176 0.0 6.0 0.00 0.00 0.00 43 1010.8
20260507170217 49 203 0.0 6.0 0.00 0.00 0.00 44 1010.7
20260507165703 47 75 4.0 6.0 0.00 0.00 0.00 44 1010.6
20260507165203 49 236 2.0 5.0 0.00 0.00 0.00 44 1010.8
20260507164703 48 151 0.0 5.0 0.00 0.00 0.00 46 1010.9
20260507164202 48 168 2.0 7.0 0.00 0.00 0.00 46 1010.9
20260507163703 48 147 2.0 7.0 0.00 0.00 0.00 46 1010.9
20260507163204 47 161 2.0 5.0 0.00 0.00 0.00 48 1011.0
20260507162701 48 169 0.0 8.0 0.00 0.00 0.00 49 1010.8
20260507162202 46 84 3.0 8.0 0.00 0.00 0.00 49 1011.0
20260507161202 46 166 0.0 6.0 0.00 0.00 0.00 49 1010.9
20260507160701 46 168 2.0 8.0 0.00 0.00 0.00 47 1010.8
20260507160202 47 109 5.0 8.0 0.00 0.00 0.00 50 1010.8
20260507155701 46 184 2.0 6.0 0.00 0.00 0.00 49 1010.9
20260507154702 46 87 3.0 8.0 0.00 0.00 0.00 51 1011.2
20260507154201 46 154 3.0 5.0 0.00 0.00 0.00 49 1010.9
20260507153703 45 123 3.0 7.0 0.00 0.00 0.00 50 1010.9
20260507153202 45 178 3.0 7.0 0.00 0.00 0.00 51 1010.7
20260507152700 46 97 0.0 6.0 0.00 0.00 0.00 50 1010.9
20260507152202 46 109 2.0 6.0 0.00 0.00 0.00 50 1010.8
20260507151700 45 110 2.0 6.0 0.00 0.00 0.00 52 1010.8
20260507151203 44 165 2.0 5.0 0.00 0.00 0.00 54 1010.8
20260507150705 44 132 2.0 7.0 0.00 0.00 0.00 53 1011.0
20260507145703 44 202 3.0 7.0 0.00 0.00 0.00 53 1010.8
20260507145202 44 114 0.0 7.0 0.00 0.00 0.00 56 1010.8
20260507144703 43 108 3.0 5.0 0.00 0.00 0.00 56 1010.7
20260507144202 42 124 4.0 8.0 0.00 0.00 0.00 57 1010.8
20260507143702 42 149 2.0 8.0 0.00 0.00 0.00 57 1010.9
20260507143202 42 36 0.0 7.0 0.00 0.00 0.00 60 1010.9
20260507142704 42 96 0.0 7.0 0.00 0.00 0.00 60 1010.7
20260507141202 41 98 1.0 5.0 0.00 0.00 0.00 61 1011.0
20260507140703 41 129 2.0 7.0 0.00 0.00 0.00 64 1011.3
20260507140204 39 161 4.0 7.0 0.00 0.00 0.00 64 1011.2
20260507135202 38 45 0.0 4.0 0.00 0.00 0.00 69 1011.2
20260507134702 37 105 0.0 4.0 0.00 0.00 0.00 69 1011.3
20260507134201 36 141 2.0 3.0 0.00 0.00 0.00 72 1011.3
20260507133702 35 68 2.0 4.0 0.00 0.00 0.00 72 1011.0
20260507133204 35 56 2.0 4.0 0.00 0.00 0.00 72 1011.3
20260507132702 35 111 0.0 3.0 0.00 0.00 0.00 70 1011.3
20260507131703 34 82 2.0 3.0 0.00 0.00 0.00 73 1011.4
20260507131204 34 70 2.0 2.0 0.00 0.00 0.00 73 1011.6
20260507130703 33 112 2.0 2.0 0.00 0.00 0.00 76 1011.5
20260507130204 33 48 2.0 2.0 0.00 0.00 0.00 76 1011.5
20260507125701 33 90 1.0 2.0 0.00 0.00 0.00 77 1011.4
20260507125202 32 82 0.0 1.0 0.00 0.00 0.00 82 1011.5
20260507124702 31 90 0.0 1.0 0.00 0.00 0.00 84 1011.8
20260507124200 31 57 0.0 1.0 0.00 0.00 0.00 87 1011.6
20260507123701 30 60 0.0 1.0 0.00 0.00 0.00 89 1011.5
20260507123201 29 60 0.0 1.0 0.00 0.00 0.00 89 1011.8
20260507122202 28 53 0.0 2.0 0.00 0.00 0.00 91 1011.6
20260507121701 27 53 0.0 2.0 0.00 0.00 0.00 92 1011.5
20260507121200 27 23 0.0 1.0 0.00 0.00 0.00 93 1011.5
20260507120701 26 23 0.0 0.0 0.00 0.00 0.00 93 1011.3
20260507120203 25 23 0.0 1.0 0.00 0.00 0.00 93 1011.3
20260507115701 24 23 0.0 2.0 0.00 0.00 0.00 93 1011.4
20260507115201 24 33 0.0 2.0 0.00 0.00 0.00 94 1011.5
20260507114702 24 23 0.0 1.0 0.00 0.00 0.00 96 1011.4
20260507114200 22 23 0.0 0.0 0.00 0.00 0.00 96 1011.4
20260507113702 22 23 0.0 1.0 0.00 0.00 0.00 96 1011.3
20260507112701 21 23 0.0 0.0 0.00 0.00 0.00 96 1011.4
20260507112202 21 23 0.0 2.0 0.00 0.00 0.00 95 1011.2
20260507111201 21 20 0.0 2.0 0.00 0.00 0.00 96 1011.4
20260507110700 21 60 1.0 1.0 0.00 0.00 0.00 95 1011.3
20260507105700 21 180 0.0 1.0 0.00 0.00 0.00 96 1011.2
20260507105201 21 23 0.0 1.0 0.00 0.00 0.00 95 1011.3
20260507104701 21 29 0.0 0.0 0.00 0.00 0.00 95 1011.4
20260507104149 21 29 0.0 1.0 0.00 0.00 0.00 95 1011.4
20260507103650 21 29 0.0 1.0 0.00 0.00 0.00 95 1011.6
20260507103149 20 20 0.0 1.0 0.00 0.00 0.00 94 1011.6
20260507102649 21 32 0.0 2.0 0.00 0.00 0.00 94 1011.4
20260507102149 21 32 0.0 2.0 0.00 0.00 0.00 94 1011.4
20260507101649 21 20 0.0 2.0 0.00 0.00 0.00 94 1011.5
20260507100647 21 23 0.0 1.0 0.00 0.00 0.00 94 1011.6
20260507095634 21 54 0.0 1.0 0.00 0.00 0.00 94 1011.6
20260507095135 22 54 0.0 1.0 0.00 0.00 0.00 94 1011.6
20260507094136 22 41 0.0 2.0 0.00 0.00 0.00 94 1011.7
20260507093629 22 18 1.0 1.0 0.00 0.00 0.00 94 1011.7
20260507093131 22 60 0.0 1.0 0.00 0.00 0.00 93 1011.6
20260507092629 22 66 0.0 1.0 0.00 0.00 0.00 93 1011.7
20260507092130 22 66 0.0 1.0 0.00 0.00 0.00 92 1011.8
20260507091629 22 66 0.0 1.0 0.00 0.00 0.00 92 1011.8
20260507091129 23 66 0.0 1.0 0.00 0.00 0.00 92 1011.7
20260507090131 23 32 0.0 2.0 0.00 0.00 0.00 92 1011.7
20260507085629 24 23 0.0 2.0 0.00 0.00 0.00 92 1011.7
20260507085129 24 0 0.0 2.0 0.00 0.00 0.00 92 1011.7
20260507084630 24 0 0.0 2.0 0.00 0.00 0.00 91 1011.7
20260507083629 24 35 0.0 2.0 0.00 0.00 0.00 91 1011.7
20260507083130 24 36 0.0 2.0 0.00 0.00 0.00 91 1011.7
20260507082629 24 45 0.0 2.0 0.00 0.00 0.00 91 1011.7
20260507082129 24 45 0.0 2.0 0.00 0.00 0.00 90 1011.7
20260507081629 24 23 0.0 2.0 0.00 0.00 0.00 90 1011.8
20260507080629 24 26 0.0 1.0 0.00 0.00 0.00 90 1011.6
20260507075629 25 66 0.0 1.0 0.00 0.00 0.00 91 1011.7
20260507075130 24 63 0.0 1.0 0.00 0.00 0.00 91 1011.6
20260507074629 24 63 0.0 1.0 0.00 0.00 0.00 91 1011.7
20260507074130 24 35 0.0 1.0 0.00 0.00 0.00 90 1011.7
20260507073628 24 35 0.0 1.0 0.00 0.00 0.00 90 1011.6
20260507073133 24 20 0.0 2.0 0.00 0.00 0.00 90 1011.8
20260507072632 24 63 0.0 2.0 0.00 0.00 0.00 90 1011.9
20260507072132 24 12 0.0 1.0 0.00 0.00 0.00 89 1011.9
20260507071633 24 75 0.0 1.0 0.00 0.00 0.00 90 1011.9
20260507071131 24 66 0.0 2.0 0.00 0.00 0.00 89 1011.9
20260507070129 24 35 0.0 1.0 0.00 0.00 0.00 89 1012.0
20260507065124 25 40 0.0 2.0 0.00 0.00 0.00 89 1012.0
20260507064623 24 66 1.0 2.0 0.00 0.00 0.00 88 1012.1
20260507064122 25 66 0.0 2.0 0.00 0.00 0.00 88 1012.0
20260507063612 25 63 0.0 2.0 0.00 0.00 0.00 88 1012.3
20260507062113 26 5 0.0 1.0 0.00 0.00 0.00 87 1012.2
20260507061612 25 23 0.0 1.0 0.00 0.00 0.00 88 1012.4
20260507060613 25 14 0.0 0.0 0.00 0.00 0.00 90 1012.5
20260507055114 26 14 0.0 0.0 0.00 0.00 0.00 86 1012.7
20260507053604 26 14 0.0 2.0 0.00 0.00 0.00 86 1012.5
20260507053104 26 20 1.0 2.0 0.00 0.00 0.00 87 1012.6
20260507052601 26 29 0.0 1.0 0.00 0.00 0.00 86 1012.5
20260507052102 26 60 0.0 2.0 0.00 0.00 0.00 85 1012.5
20260507051601 26 35 0.0 2.0 0.00 0.00 0.00 85 1012.7
20260507051108 26 23 0.0 2.0 0.00 0.00 0.00 85 1012.9
20260507050611 27 35 0.0 1.0 0.00 0.00 0.00 84 1013.0
20260507050111 27 35 0.0 1.0 0.00 0.00 0.00 84 1012.7
20260507045103 27 35 0.0 2.0 0.00 0.00 0.00 83 1012.9
20260507044602 28 23 0.0 1.0 0.00 0.00 0.00 84 1013.0
20260507044102 28 66 0.0 0.0 0.00 0.00 0.00 83 1012.9
20260507043600 28 66 0.0 1.0 0.00 0.00 0.00 83 1013.0
20260507042601 28 75 1.0 2.0 0.00 0.00 0.00 81 1013.2
20260507042101 29 75 0.0 2.0 0.00 0.00 0.00 80 1013.2
20260507041603 29 75 0.0 1.0 0.00 0.00 0.00 81 1013.2
20260507041102 29 69 0.0 1.0 0.00 0.00 0.00 80 1013.2
20260507040601 29 14 0.0 0.0 0.00 0.00 0.00 79 1013.3
20260507040101 30 14 0.0 0.0 0.00 0.00 0.00 78 1013.0
20260507035601 31 14 0.0 1.0 0.00 0.00 0.00 77 1013.3
20260507035101 31 14 0.0 1.0 0.00 0.00 0.00 77 1013.7
20260507034603 31 7 0.0 1.0 0.00 0.00 0.00 76 1013.8
20260507034100 32 7 0.0 1.0 0.00 0.00 0.00 75 1013.5
20260507033600 32 74 0.0 0.0 0.00 0.00 0.00 74 1013.7
20260507033100 33 74 0.0 0.0 0.00 0.00 0.00 73 1013.4
20260507032601 33 74 0.0 1.0 0.00 0.00 0.00 72 1013.8
20260507032101 35 74 0.0 1.0 0.00 0.00 0.00 70 1013.7
20260507031601 35 90 1.0 1.0 0.00 0.00 0.00 69 1013.9
20260507031100 36 71 0.0 1.0 0.00 0.00 0.00 68 1013.7
20260507025601 37 90 0.0 3.0 0.00 0.00 0.00 66 1013.8
20260507025103 37 120 0.0 2.0 0.00 0.00 0.00 67 1014.0
20260507024601 37 26 0.0 2.0 0.00 0.00 0.00 66 1013.9
20260507024103 37 74 0.0 0.0 0.00 0.00 0.00 67 1013.8
20260507023600 38 74 0.0 2.0 0.00 0.00 0.00 67 1013.8
20260507023101 38 74 0.0 3.0 0.00 0.00 0.00 66 1013.7
20260507022603 38 96 0.0 3.0 0.00 0.00 0.00 65 1013.8
20260507022102 38 90 0.0 4.0 0.00 0.00 0.00 65 1013.8
20260507021601 38 145 1.0 4.0 0.00 0.00 0.00 63 1013.8
20260507020101 38 157 1.0 5.0 0.00 0.00 0.00 62 1013.5
20260507015604 38 75 2.0 5.0 0.00 0.00 0.00 62 1013.4
20260507014601 38 114 1.0 4.0 0.00 0.00 0.00 63 1013.4
20260507014100 38 78 2.0 6.0 0.00 0.00 0.00 63 1013.5
20260507013602 39 75 0.0 6.0 0.00 0.00 0.00 63 1013.7
20260507013101 39 146 2.0 5.0 0.00 0.00 0.00 61 1013.8
20260507012602 39 85 2.0 5.0 0.00 0.00 0.00 61 1013.5
20260507012103 39 147 0.0 4.0 0.00 0.00 0.00 61 1013.7
20260507011601 39 75 2.0 4.0 0.00 0.00 0.00 61 1013.7
20260507011100 39 101 2.0 5.0 0.00 0.00 0.00 61 1013.8
20260507010601 40 127 0.0 5.0 0.00 0.00 0.00 60 1013.7
20260507010100 40 112 2.0 5.0 0.00 0.00 0.00 60 1013.5
20260507005602 40 123 1.0 8.0 0.00 0.00 0.00 59 1013.5
20260507004602 40 69 2.0 4.0 0.00 0.00 0.00 59 1013.4
20260507004101 40 121 2.0 4.0 0.00 0.00 0.00 59 1013.5
20260507003559 40 102 3.0 4.0 0.00 0.00 0.00 58 1013.5
20260507003100 40 112 3.0 4.0 0.00 0.00 0.00 58 1013.5
20260507002601 40 40 3.0 5.0 0.00 0.00 0.00 58 1013.9
20260507002059 40 106 2.0 5.0 0.00 0.00 0.00 58 1013.8
20260507001600 40 154 2.0 5.0 0.00 0.00 0.00 59 1013.9
20260507001059 40 148 0.0 5.0 0.00 0.00 0.00 58 1014.0
20260507000100 40 147 2.0 7.0 0.00 0.00 0.00 59 1013.7
20260506235600 40 132 2.0 4.0 0.00 0.00 0.00 58 1013.9
20260506234547 40 171 2.0 4.0 0.00 0.00 0.00 58 1013.7
20260506234046 40 90 2.0 6.0 0.00 0.00 0.00 60 1013.8
20260506233547 40 120 2.0 6.0 0.00 0.00 0.00 60 1014.0
20260506233045 40 150 2.0 4.0 0.00 0.00 0.00 60 1014.1
20260506232547 40 139 2.0 6.0 0.00 0.00 0.00 59 1014.2
20260506232045 40 140 1.0 6.0 0.00 0.00 0.00 60 1014.2
20260506231541 40 127 3.0 5.0 0.00 0.00 0.00 60 1014.1
20260506230542 40 34 2.0 6.0 0.00 0.00 0.00 60 1014.4
20260506230038 40 105 2.0 5.0 0.00 0.00 0.00 60 1014.4
20260506225537 40 123 2.0 6.0 0.00 0.00 0.00 59 1014.3
20260506225037 40 140 1.0 6.0 0.00 0.00 0.00 60 1014.4
20260506224038 40 162 2.0 5.0 0.00 0.00 0.00 60 1014.4
20260506223536 40 119 2.0 5.0 0.00 0.00 0.00 60 1014.4
20260506223036 40 131 1.0 6.0 0.00 0.00 0.00 59 1014.3
20260506222037 40 154 1.0 7.0 0.00 0.00 0.00 60 1014.4
20260506221036 40 69 0.0 5.0 0.00 0.00 0.00 59 1014.5
20260506220536 40 126 1.0 8.0 0.00 0.00 0.00 58 1014.7
20260506215029 40 114 3.0 7.0 0.00 0.00 0.00 58 1014.5
20260506214028 40 186 2.0 5.0 0.00 0.00 0.00 59 1014.6
20260506213530 40 116 3.0 8.0 0.00 0.00 0.00 60 1014.4
20260506211547 40 79 2.0 7.0 0.00 0.00 0.00 59 1014.6
20260506211029 41 173 4.0 7.0 0.00 0.00 0.00 58 1014.5
20260506210530 40 129 2.0 7.0 0.00 0.00 0.00 58 1014.6
20260506210029 41 165 4.0 6.0 0.00 0.00 0.00 57 1014.7
20260506205529 40 117 1.0 6.0 0.00 0.00 0.00 59 1014.7